Language: 


Des rapports , des résumés tant et plus, au choix de chacun....


Données statistiques de la station
Quotidien Rapport Juillet 18, 2017 Unités:  Anglais    Métrique   les deux
« Précédent Jour
Suivant Jour »
Quotidien Hebdomadaire Mensuel Annuel Actuel
  Haut: Bas: Moyen:
Température: 91.8 °F 55.9 °F 74.1 °F
Pt de rosée: 64.4 °F 53.6 °F 58.8 °F
Humidité: 95 % 37 % 62 %
Vitesse du vent: 13.2 mph 0 mph 5.1 mph
Rafales: 13.2 mph - -
Vent:- - ENE
Pression: 30.2 in 29.8 in -
Précipitation: 0 in    
Historical Graphs
 
 
Données statistiques pour Juillet 18, 2017
Heure Température Point de rosée Pression Vent Vitesse du vent Refales Humidité Pluie (taux horaire)
00:03 62.2 °F 53.6 °F 30.1 in Calm   3.1 mph 73 % 0 in
00:08 61.9 °F 53.6 °F 30.1 in NNE 3.8 mph 3.8 mph 73 % 0 in
00:13 61.5 °F 53.6 °F 30.2 in Calm   3.8 mph 74 % 0 in
00:18 61.2 °F 53.6 °F 30.2 in NNE 3.6 mph 3.8 mph 75 % 0 in
00:23 61 °F 53.6 °F 30.2 in NNE 3.6 mph 3.6 mph 77 % 0 in
00:28 60.6 °F 53.6 °F 30.2 in NNE 3.6 mph 3.6 mph 78 % 0 in
00:33 60.4 °F 53.6 °F 30.2 in NNE 3.8 mph 3.8 mph 78 % 0 in
00:38 60.3 °F 53.6 °F 30.2 in ENE 3.8 mph 3.8 mph 79 % 0 in
00:43 60.1 °F 53.6 °F 30.2 in Calm   3.8 mph 79 % 0 in
00:48 59.9 °F 55.4 °F 30.2 in Calm   3.8 mph 80 % 0 in
00:53 59.7 °F 53.6 °F 30.2 in North 1.3 mph 4.7 mph 81 % 0 in
00:58 59.7 °F 53.6 °F 30.2 in NNE 4.7 mph 5.4 mph 81 % 0 in
01:03 59.5 °F 53.6 °F 30.2 in NE 3.6 mph 5.4 mph 81 % 0 in
01:08 59.4 °F 55.4 °F 30.2 in Calm   4.7 mph 82 % 0 in
01:13 59.2 °F 53.6 °F 30.1 in ENE 2.9 mph 3.8 mph 82 % 0 in
01:18 59 °F 53.6 °F 30.1 in Calm   3.1 mph 83 % 0 in
01:23 59 °F 53.6 °F 30.1 in Calm   2.9 mph 83 % 0 in
01:28 58.8 °F 53.6 °F 30.2 in NE 3.1 mph 3.1 mph 83 % 0 in
01:33 58.8 °F 55.4 °F 30.2 in NNE 2.5 mph 3.1 mph 84 % 0 in
01:38 58.6 °F 55.4 °F 30.2 in Calm   3.1 mph 85 % 0 in
01:44 58.6 °F 55.4 °F 30.2 in NNE 3.8 mph 3.8 mph 85 % 0 in
01:48 58.6 °F 55.4 °F 30.2 in NNE 2 mph 5.4 mph 85 % 0 in
01:53 58.6 °F 55.4 °F 30.2 in NNE 4 mph 5.4 mph 85 % 0 in
01:58 58.5 °F 55.4 °F 30.2 in Calm   4 mph 85 % 0 in
02:04 58.5 °F 55.4 °F 30.2 in NNE 3.1 mph 4 mph 86 % 0 in
02:09 58.3 °F 55.4 °F 30.2 in NNE 5.4 mph 5.4 mph 86 % 0 in
02:14 58.3 °F 55.4 °F 30.2 in Calm   5.4 mph 87 % 0 in
02:19 58.3 °F 55.4 °F 30.2 in ENE 3.6 mph 5.4 mph 88 % 0 in
02:24 58.3 °F 55.4 °F 30.2 in NNE 4.7 mph 4.7 mph 88 % 0 in
02:29 58.3 °F 55.4 °F 30.2 in NNE 4.7 mph 4.7 mph 89 % 0 in
02:34 58.5 °F 55.4 °F 30.2 in North 1.3 mph 4.7 mph 89 % 0 in
02:39 58.3 °F 55.4 °F 30.2 in Calm   4.7 mph 89 % 0 in
02:44 58.5 °F 55.4 °F 30.2 in Calm   1.3 mph 89 % 0 in
02:49 58.3 °F 55.4 °F 30.2 in Calm     89 % 0 in
02:54 58.1 °F 55.4 °F 30.2 in NE 2.5 mph 2.5 mph 89 % 0 in
02:59 58.1 °F 55.4 °F 30.2 in NE 2.5 mph 2.5 mph 89 % 0 in
03:04 57.9 °F 55.4 °F 30.2 in Calm   2.5 mph 89 % 0 in
03:09 57.6 °F 55.4 °F 30.2 in Calm   2.5 mph 89 % 0 in
03:14 57.6 °F 55.4 °F 30.1 in NNE 2.7 mph 2.7 mph 90 % 0 in
03:19 57.4 °F 55.4 °F 30.1 in Calm   2.7 mph 90 % 0 in
03:24 57.2 °F 55.4 °F 30.1 in North 4 mph 4 mph 90 % 0 in
03:29 57.2 °F 55.4 °F 30.1 in North 4 mph 4 mph 91 % 0 in
03:34 57 °F 55.4 °F 30.1 in North 3.8 mph 4 mph 92 % 0 in
03:39 57 °F 55.4 °F 30.1 in NE 3.6 mph 4 mph 92 % 0 in
03:44 56.8 °F 55.4 °F 30.1 in NE 3.4 mph 3.8 mph 92 % 0 in
03:50 56.8 °F 55.4 °F 30.1 in NNE 2 mph 3.8 mph 92 % 0 in
03:55 56.7 °F 55.4 °F 30.1 in NNE 2 mph 3.4 mph 93 % 0 in
04:00 56.7 °F 55.4 °F 30.1 in NNE 2 mph 2 mph 92 % 0 in
04:05 56.7 °F 55.4 °F 30.1 in NNE 3.8 mph 3.8 mph 93 % 0 in
04:10 56.7 °F 55.4 °F 30.1 in NE 3.4 mph 4 mph 93 % 0 in
04:15 56.7 °F 55.4 °F 30.1 in NE 3.4 mph 4 mph 93 % 0 in
04:20 56.5 °F 55.4 °F 30.1 in NE 3.4 mph 3.4 mph 93 % 0 in
04:25 56.5 °F 55.4 °F 30.1 in North 2.5 mph 4.3 mph 93 % 0 in
04:30 56.5 °F 55.4 °F 30.1 in North 4.9 mph 4.9 mph 93 % 0 in
04:35 56.5 °F 55.4 °F 30.1 in NNE 3.1 mph 4.9 mph 93 % 0 in
04:40 56.3 °F 55.4 °F 30.1 in NNE 3.1 mph 4.9 mph 93 % 0 in
04:45 56.3 °F 55.4 °F 30.1 in NNE 3.1 mph 3.1 mph 94 % 0 in
04:50 56.3 °F 55.4 °F 30.1 in NNE 3.1 mph 3.1 mph 94 % 0 in
04:55 56.3 °F 55.4 °F 30.1 in NNE 3.1 mph 3.1 mph 94 % 0 in
05:00 56.1 °F 55.4 °F 30.1 in NNE 3.1 mph 3.1 mph 94 % 0 in
05:05 56.1 °F 55.4 °F 30.1 in NNE 2.9 mph 2.9 mph 94 % 0 in
05:10 56.1 °F 55.4 °F 30.1 in NNE 2.9 mph 2.9 mph 94 % 0 in
05:15 55.9 °F 55.4 °F 30.1 in Calm   3.4 mph 94 % 0 in
05:20 55.9 °F 55.4 °F 30.1 in NNE 4.9 mph 4.9 mph 94 % 0 in
05:25 56.1 °F 55.4 °F 30.1 in NE 2.7 mph 4.9 mph 94 % 0 in
05:31 56.1 °F 55.4 °F 30.1 in NNE 3.4 mph 4.9 mph 94 % 0 in
05:36 56.1 °F 55.4 °F 30.1 in North 3.4 mph 3.6 mph 94 % 0 in
05:41 56.1 °F 55.4 °F 30.1 in North 3.4 mph 3.4 mph 94 % 0 in
05:46 56.1 °F 55.4 °F 30.1 in North 2.7 mph 3.4 mph 94 % 0 in
05:51 56.3 °F 55.4 °F 30.1 in Calm   3.4 mph 94 % 0 in
05:56 56.3 °F 55.4 °F 30.1 in NNE 2.9 mph 3.6 mph 94 % 0 in
06:01 56.3 °F 55.4 °F 30.1 in NE 3.4 mph 3.6 mph 94 % 0 in
06:06 56.5 °F 55.4 °F 30.1 in NNE 3.6 mph 3.6 mph 94 % 0 in
06:08 56.5 °F 55.4 °F 30.1 in NNE 3.6 mph 3.6 mph 94 % 0 in
06:13 56.7 °F 55.4 °F 30.1 in NNE 3.6 mph 3.6 mph 95 % 0 in
06:14 56.7 °F 55.4 °F 30.1 in NNE 2.5 mph 3.6 mph 95 % 0 in
06:19 56.7 °F 55.4 °F 30.1 in NNE 2.5 mph 3.6 mph 95 % 0 in
06:24 56.8 °F 55.4 °F 30.1 in NE 1.6 mph 4.7 mph 95 % 0 in
06:29 57 °F 55.4 °F 30.1 in NE 1.6 mph 4.7 mph 95 % 0 in
06:34 57.4 °F 55.4 °F 30.1 in Calm   1.6 mph 94 % 0 in
06:39 57.6 °F 55.4 °F 30.1 in Calm   1.6 mph 94 % 0 in
06:44 58.1 °F 57.2 °F 30.1 in Calm   1.6 mph 94 % 0 in
06:49 58.6 °F 57.2 °F 30.1 in Calm     94 % 0 in
06:54 59.2 °F 57.2 °F 30.1 in Calm     94 % 0 in
06:59 59.4 °F 57.2 °F 30.1 in Calm     93 % 0 in
07:04 59.7 °F 57.2 °F 30.1 in Calm     92 % 0 in
07:09 60.4 °F 57.2 °F 30.1 in Calm     92 % 0 in
07:14 61.3 °F 59 °F 30.1 in ENE 4 mph 4 mph 91 % 0 in
07:19 62.1 °F 59 °F 30.1 in NE 5.8 mph 5.8 mph 90 % 0 in
07:25 62.8 °F 59 °F 30.1 in NE 3.6 mph 5.8 mph 87 % 0 in
07:30 63.3 °F 59 °F 30.1 in NE 6.9 mph 6.9 mph 86 % 0 in
07:35 63.5 °F 59 °F 30.1 in ENE 5.4 mph 6.9 mph 84 % 0 in
07:40 63.5 °F 59 °F 30.1 in East 7.2 mph 7.2 mph 83 % 0 in
07:45 63.7 °F 59 °F 30.1 in East 5.8 mph 7.2 mph 82 % 0 in
07:50 63.5 °F 59 °F 30.1 in NE 2.7 mph 6.5 mph 82 % 0 in
07:55 63.3 °F 57.2 °F 30.1 in ENE 2.5 mph 6 mph 81 % 0 in
08:00 63.1 °F 57.2 °F 30.1 in ENE 3.8 mph 6 mph 81 % 0 in
08:05 63.5 °F 57.2 °F 30.1 in NE 4.3 mph 4.9 mph 81 % 0 in
08:10 63.9 °F 57.2 °F 30.1 in NE 2.9 mph 4.9 mph 81 % 0 in
08:15 64.2 °F 59 °F 30.1 in NE 3.6 mph 6 mph 81 % 0 in
08:20 64.8 °F 59 °F 30.1 in East 5.8 mph 6 mph 80 % 0 in
08:25 65.5 °F 59 °F 30.1 in NE 6.3 mph 6.3 mph 79 % 0 in
08:30 65.8 °F 59 °F 30.1 in ENE 4.3 mph 6.3 mph 78 % 0 in
08:35 66.2 °F 59 °F 30.1 in ENE 2.7 mph 6.3 mph 75 % 0 in
08:40 66.2 °F 59 °F 30.1 in East 6.3 mph 6.9 mph 76 % 0 in
08:45 66.4 °F 57.2 °F 30.1 in ESE 1.3 mph 6.9 mph 74 % 0 in
08:50 66.4 °F 57.2 °F 30.1 in NE 3.6 mph 7.6 mph 74 % 0 in
08:52 66.4 °F 57.2 °F 30.1 in East 2.7 mph 7.6 mph 74 % 0 in
08:57 66.7 °F 57.2 °F 30.1 in Calm   6.5 mph 73 % 0 in
09:02 67.5 °F 59 °F 30.1 in NE 4 mph 8.7 mph 72 % 0 in
09:07 67.8 °F 59 °F 30.1 in East 4.9 mph 8.7 mph 72 % 0 in
09:12 67.6 °F 57.2 °F 30.1 in NE 3.6 mph 7.6 mph 70 % 0 in
09:17 68 °F 57.2 °F 30.1 in Calm   7.6 mph 70 % 0 in
09:22 68.5 °F 57.2 °F 30.1 in East 6.7 mph 7.6 mph 69 % 0 in
09:27 70.2 °F 59 °F 30.1 in East 3.4 mph 7.6 mph 69 % 0 in
09:32 71.2 °F 59 °F 30.1 in East 5.8 mph 8.1 mph 67 % 0 in
09:37 71.6 °F 59 °F 30.1 in NE 4.9 mph 8.1 mph 66 % 0 in
09:42 72 °F 59 °F 30.1 in ESE 7.4 mph 8.1 mph 64 % 0 in
09:47 72.3 °F 59 °F 30.1 in ESE 3.4 mph 8.1 mph 64 % 0 in
09:52 72 °F 59 °F 30.1 in East 5.8 mph 8.5 mph 63 % 0 in
09:58 71.4 °F 59 °F 30.1 in East 4.9 mph 8.5 mph 64 % 0 in
10:03 72 °F 59 °F 30.1 in ENE 3.4 mph 8.5 mph 64 % 0 in
10:08 72.3 °F 59 °F 30.1 in NE 4.3 mph 7.4 mph 64 % 0 in
10:13 72.9 °F 60.8 °F 30 in NE 4 mph 7.6 mph 64 % 0 in
10:18 73.4 °F 59 °F 30 in ENE 8.5 mph 8.7 mph 61 % 0 in
10:23 74.1 °F 60.8 °F 30 in NE 2.9 mph 8.7 mph 62 % 0 in
10:28 74.8 °F 60.8 °F 30 in East 8.7 mph 8.7 mph 62 % 0 in
10:33 75 °F 60.8 °F 30 in NE 2.7 mph 8.7 mph 59 % 0 in
10:38 76.3 °F 62.6 °F 30 in East 1.3 mph 8.7 mph 60 % 0 in
10:43 76.6 °F 60.8 °F 30 in ESE 7.6 mph 8.1 mph 59 % 0 in
10:48 77.2 °F 60.8 °F 30 in ENE 7.8 mph 10.3 mph 57 % 0 in
10:53 77.4 °F 60.8 °F 30 in East 6 mph 10.3 mph 56 % 0 in
10:58 77.9 °F 62.6 °F 30 in East 6.3 mph 8.5 mph 57 % 0 in
11:03 77.9 °F 60.8 °F 30 in ENE 7.6 mph 8.7 mph 55 % 0 in
11:08 78.4 °F 60.8 °F 30 in East 4 mph 8.7 mph 56 % 0 in
11:13 79 °F 60.8 °F 30 in ENE 5.4 mph 8.7 mph 53 % 0 in
11:18 79.3 °F 62.6 °F 30 in East 4.9 mph 7.4 mph 55 % 0 in
11:23 79.7 °F 62.6 °F 30 in SE 8.1 mph 8.1 mph 54 % 0 in
11:28 80.2 °F 62.6 °F 30 in East 5.8 mph 8.7 mph 53 % 0 in
11:33 80.4 °F 62.6 °F 30 in ENE 3.4 mph 8.7 mph 53 % 0 in
11:38 81 °F 62.6 °F 30 in East 6 mph 10.3 mph 51 % 0 in
11:43 81.1 °F 60.8 °F 30 in ENE 4.3 mph 10.3 mph 50 % 0 in
11:46 81.1 °F 60.8 °F 30 in NE 12.1 mph 12.8 mph 49 % 0 in
11:51 81.5 °F 62.6 °F 30 in NE 6.5 mph 12.8 mph 50 % 0 in
11:56 82.2 °F 62.6 °F 30 in NE 5.4 mph 12.1 mph 49 % 0 in
12:01 82.8 °F 62.6 °F 30 in East 7.4 mph 11.9 mph 49 % 0 in
12:03 82.6 °F 60.8 °F 30 in NNE 8.5 mph 11.9 mph 46 % 0 in
12:08 82.6 °F 60.8 °F 30 in East 6.3 mph 11.9 mph 47 % 0 in
12:13 82.6 °F 59 °F 30 in ENE 8.5 mph 10.7 mph 45 % 0 in
12:18 82.6 °F 59 °F 30 in ESE 5.4 mph 12.8 mph 45 % 0 in
12:23 83.5 °F 62.6 °F 30 in East 7.4 mph 12.8 mph 47 % 0 in
12:28 83.8 °F 60.8 °F 30 in ESE 6.5 mph 11.2 mph 46 % 0 in
12:33 84 °F 62.6 °F 30 in East 6.5 mph 11.2 mph 46 % 0 in
12:38 84.4 °F 60.8 °F 30 in ENE 8.1 mph 10.5 mph 44 % 0 in
12:43 84.9 °F 60.8 °F 30 in East 10.7 mph 10.7 mph 45 % 0 in
12:44 84.9 °F 60.8 °F 30 in East 10.3 mph 12.8 mph 44 % 0 in
12:49 84.9 °F 60.8 °F 30 in East 6 mph 12.8 mph 44 % 0 in
12:54 85.3 °F 60.8 °F 30 in NE 3.4 mph 12.8 mph 44 % 0 in
12:59 85.1 °F 60.8 °F 30 in NE 10.7 mph 12.8 mph 43 % 0 in
13:04 84.9 °F 59 °F 30 in East 6.7 mph 13 mph 43 % 0 in
13:09 85.8 °F 60.8 °F 30 in East 3.1 mph 13 mph 44 % 0 in
13:14 86.2 °F 60.8 °F 30 in NE 3.6 mph 10.7 mph 42 % 0 in
13:19 86.4 °F 60.8 °F 30 in ENE 7.6 mph 9.8 mph 43 % 0 in
13:24 86.7 °F 60.8 °F 30 in East 8.1 mph 9.8 mph 42 % 0 in
13:29 86.9 °F 62.6 °F 29.9 in ENE 10.5 mph 10.5 mph 43 % 0 in
13:34 86.9 °F 60.8 °F 29.9 in ENE 5.6 mph 10.5 mph 42 % 0 in
13:39 87.1 °F 62.6 °F 29.9 in NE 5.8 mph 10.5 mph 43 % 0 in
13:44 87.4 °F 60.8 °F 30 in East 9.8 mph 9.8 mph 42 % 0 in
13:49 87.4 °F 60.8 °F 30 in ENE 7.6 mph 9.8 mph 41 % 0 in
13:54 87.4 °F 60.8 °F 30 in East 6.3 mph 12.3 mph 41 % 0 in
13:59 87.6 °F 60.8 °F 30 in NE 4 mph 12.5 mph 41 % 0 in
14:04 87.6 °F 62.6 °F 30 in East 6.5 mph 12.5 mph 42 % 0 in
14:09 87.8 °F 60.8 °F 30 in ENE 6.5 mph 9.8 mph 41 % 0 in
14:14 87.8 °F 60.8 °F 30 in NE 7.4 mph 9.8 mph 41 % 0 in
14:20 88.2 °F 62.6 °F 30 in ESE 6.3 mph 13 mph 41 % 0 in
14:25 88.7 °F 62.6 °F 30 in ESE 4.3 mph 13 mph 41 % 0 in
14:30 89.2 °F 62.6 °F 30 in East 5.4 mph 10.1 mph 41 % 0 in
14:35 89.2 °F 62.6 °F 30 in East 8.7 mph 8.7 mph 41 % 0 in
14:40 89.2 °F 62.6 °F 30 in ENE 6.5 mph 9.6 mph 40 % 0 in
14:45 89.8 °F 62.6 °F 29.9 in SE 6.3 mph 9.6 mph 40 % 0 in
14:50 89.6 °F 62.6 °F 29.9 in East 7.4 mph 10.3 mph 39 % 0 in
14:55 88.9 °F 62.6 °F 29.9 in ENE 7.6 mph 11 mph 40 % 0 in
15:00 89.2 °F 62.6 °F 29.9 in ENE 4.3 mph 11 mph 40 % 0 in
15:05 88.9 °F 62.6 °F 29.9 in NE 8.5 mph 12.1 mph 40 % 0 in
15:10 88.7 °F 62.6 °F 29.9 in East 6 mph 12.1 mph 40 % 0 in
15:15 89.6 °F 62.6 °F 29.9 in ESE 3.6 mph 12.1 mph 40 % 0 in
15:20 89.4 °F 62.6 °F 29.9 in East 5.6 mph 10.1 mph 40 % 0 in
15:25 89.6 °F 62.6 °F 29.9 in ENE 8.7 mph 10.1 mph 39 % 0 in
15:30 89.8 °F 62.6 °F 29.9 in East 8.5 mph 9.8 mph 39 % 0 in
15:35 90.1 °F 62.6 °F 29.9 in ENE 5.4 mph 10.7 mph 39 % 0 in
15:40 90.7 °F 62.6 °F 29.9 in East 7.4 mph 10.7 mph 39 % 0 in
15:45 90.9 °F 64.4 °F 29.9 in ESE 8.7 mph 10.3 mph 40 % 0 in
15:50 90.5 °F 62.6 °F 29.9 in East 6 mph 8.7 mph 39 % 0 in
15:56 90.9 °F 62.6 °F 29.9 in East 6.5 mph 8.7 mph 38 % 0 in
16:00 90.9 °F 62.6 °F 29.9 in East 8.7 mph 8.7 mph 38 % 0 in
16:06 91.2 °F 62.6 °F 29.9 in NE 6 mph 8.7 mph 38 % 0 in
16:11 90.9 °F 60.8 °F 29.9 in ESE 6 mph 8.5 mph 37 % 0 in
16:16 90.5 °F 60.8 °F 29.9 in East 13.2 mph 13.2 mph 37 % 0 in
16:20 91.2 °F 62.6 °F 29.9 in South 4 mph 13.2 mph 38 % 0 in
16:25 91.4 °F 62.6 °F 29.9 in ESE 7.8 mph 13.2 mph 37 % 0 in
16:30 91.4 °F 62.6 °F 29.9 in East 6.7 mph 10.5 mph 37 % 0 in
16:36 91.6 °F 62.6 °F 29.9 in East 8.1 mph 12.1 mph 38 % 0 in
16:41 91.6 °F 62.6 °F 29.9 in ENE 6.3 mph 12.1 mph 37 % 0 in
16:46 91.6 °F 62.6 °F 29.9 in NE 5.6 mph 9.6 mph 38 % 0 in
16:51 91.8 °F 62.6 °F 29.9 in NE 5.6 mph 9.6 mph 37 % 0 in
16:56 91.4 °F 62.6 °F 29.9 in East 10.3 mph 10.3 mph 37 % 0 in
17:01 91.4 °F 62.6 °F 29.9 in NE 8.7 mph 10.7 mph 37 % 0 in
17:03 91 °F 62.6 °F 29.9 in ENE 5.8 mph 10.7 mph 38 % 0 in
17:06 91.2 °F 62.6 °F 29.9 in East 5.8 mph 10.7 mph 38 % 0 in
17:11 91.4 °F 62.6 °F 29.9 in ENE 8.5 mph 8.7 mph 37 % 0 in
17:13 91.8 °F 62.6 °F 29.9 in ENE 8.5 mph 8.5 mph 38 % 0 in
17:18 91.6 °F 62.6 °F 29.9 in East 7.2 mph 8.5 mph 38 % 0 in
17:23 90.9 °F 62.6 °F 29.9 in NE 6.3 mph 7.2 mph 38 % 0 in
17:28 91 °F 62.6 °F 29.9 in East 6.5 mph 7.2 mph 38 % 0 in
17:33 90.5 °F 62.6 °F 29.9 in NE 10.7 mph 11.9 mph 38 % 0 in
17:35 90.7 °F 62.6 °F 29.9 in NE 10.7 mph 11.9 mph 38 % 0 in
17:40 90.1 °F 60.8 °F 29.9 in NE 8.1 mph 11.9 mph 38 % 0 in
17:45 90.5 °F 62.6 °F 29.9 in ENE 6.5 mph 10.7 mph 39 % 0 in
17:50 90.5 °F 62.6 °F 29.9 in ESE 9.6 mph 10.5 mph 38 % 0 in
17:55 90.7 °F 62.6 °F 29.9 in East 5.8 mph 10.1 mph 39 % 0 in
18:00 90.1 °F 60.8 °F 29.9 in East 5.8 mph 9.6 mph 38 % 0 in
18:05 90 °F 62.6 °F 29.9 in ENE 7.8 mph 7.8 mph 39 % 0 in
18:10 90 °F 62.6 °F 29.9 in ENE 7.8 mph 7.8 mph 39 % 0 in
18:15 89.8 °F 60.8 °F 29.9 in ENE 7.8 mph 7.8 mph 38 % 0 in
18:20 89.6 °F 62.6 °F 29.9 in ESE 7.6 mph 7.8 mph 39 % 0 in
18:25 90.1 °F 62.6 °F 29.9 in ENE 10.1 mph 10.1 mph 39 % 0 in
18:30 89.6 °F 62.6 °F 29.9 in ENE 10.1 mph 10.1 mph 39 % 0 in
18:35 89.1 °F 60.8 °F 29.9 in ENE 10.1 mph 10.1 mph 39 % 0 in
18:40 88.9 °F 62.6 °F 29.9 in NE 7.4 mph 10.1 mph 40 % 0 in
18:45 88 °F 60.8 °F 29.9 in ENE 11 mph 11 mph 39 % 0 in
18:50 87.6 °F 60.8 °F 29.9 in NE 10.3 mph 11 mph 40 % 0 in
18:55 87.6 °F 60.8 °F 29.9 in East 7.8 mph 11 mph 40 % 0 in
19:00 87.1 °F 60.8 °F 29.9 in East 7.6 mph 10.3 mph 41 % 0 in
19:05 87.3 °F 60.8 °F 29.9 in ENE 9.8 mph 9.8 mph 41 % 0 in
19:10 86.9 °F 60.8 °F 29.9 in East 8.7 mph 9.8 mph 41 % 0 in
19:15 86.7 °F 60.8 °F 29.9 in NNE 6.5 mph 9.8 mph 41 % 0 in
19:21 86.4 °F 60.8 °F 29.9 in NE 8.7 mph 12.5 mph 41 % 0 in
19:26 85.8 °F 59 °F 29.9 in NE 6 mph 12.5 mph 42 % 0 in
19:31 85.3 °F 59 °F 29.9 in East 7.8 mph 8.7 mph 42 % 0 in
19:36 85.1 °F 60.8 °F 29.9 in East 3.8 mph 7.8 mph 43 % 0 in
19:41 84.9 °F 60.8 °F 29.9 in ESE 3.1 mph 7.8 mph 44 % 0 in
19:46 84.6 °F 59 °F 29.9 in NE 6.7 mph 12.1 mph 43 % 0 in
19:51 84 °F 60.8 °F 29.9 in East 7.8 mph 12.1 mph 44 % 0 in
19:56 83.8 °F 60.8 °F 29.9 in NE 4.9 mph 8.7 mph 45 % 0 in
20:01 83.7 °F 60.8 °F 29.9 in East 5.8 mph 10.3 mph 45 % 0 in
20:06 83.7 °F 60.8 °F 29.9 in ENE 1.1 mph 10.3 mph 45 % 0 in
20:11 83.7 °F 60.8 °F 29.9 in NE 9.6 mph 9.6 mph 45 % 0 in
20:13 83.5 °F 60.8 °F 29.9 in ENE 6.5 mph 9.6 mph 45 % 0 in
20:18 83.5 °F 60.8 °F 29.9 in East 8.5 mph 12.8 mph 45 % 0 in
20:23 83.1 °F 60.8 °F 29.9 in East 7.8 mph 12.8 mph 45 % 0 in
20:28 82.8 °F 60.8 °F 29.9 in ENE 7.8 mph 9.8 mph 45 % 0 in
20:33 82.4 °F 59 °F 29.9 in ESE 6.5 mph 9.8 mph 45 % 0 in
20:38 82.2 °F 60.8 °F 29.9 in East 6 mph 9.8 mph 46 % 0 in
20:43 81.9 °F 59 °F 29.9 in ENE 5.8 mph 8.7 mph 46 % 0 in
20:48 81.5 °F 59 °F 29.9 in East 9.8 mph 12.1 mph 46 % 0 in
20:53 81.3 °F 59 °F 29.9 in ENE 5.4 mph 12.1 mph 46 % 0 in
20:58 81 °F 59 °F 29.9 in East 7.6 mph 11 mph 46 % 0 in
21:03 80.6 °F 59 °F 29.9 in East 7.4 mph 10.7 mph 47 % 0 in
21:08 80.4 °F 59 °F 29.9 in East 8.5 mph 10.7 mph 47 % 0 in
21:13 80.1 °F 59 °F 29.9 in ENE 10.7 mph 10.7 mph 47 % 0 in
21:18 79.7 °F 59 °F 29.9 in ENE 6.5 mph 10.7 mph 47 % 0 in
21:24 79.3 °F 59 °F 29.9 in ENE 7.4 mph 10.5 mph 48 % 0 in
21:29 79.2 °F 59 °F 29.9 in ENE 6 mph 12.8 mph 48 % 0 in
21:34 79 °F 57.2 °F 29.9 in NE 5.8 mph 12.8 mph 48 % 0 in
21:39 78.8 °F 59 °F 29.9 in ESE 6.5 mph 8.5 mph 49 % 0 in
21:44 78.4 °F 57.2 °F 29.9 in NE 6 mph 8.1 mph 49 % 0 in
21:49 78.3 °F 59 °F 29.9 in ENE 7.4 mph 8.5 mph 50 % 0 in
21:54 77.9 °F 59 °F 29.9 in ENE 6 mph 8.5 mph 50 % 0 in
21:59 77.7 °F 57.2 °F 29.9 in NNE 4.9 mph 7.6 mph 50 % 0 in
22:04 77.7 °F 57.2 °F 29.9 in NE 5.8 mph 8.1 mph 50 % 0 in
22:09 77.5 °F 59 °F 29.9 in East 6 mph 8.5 mph 51 % 0 in
22:14 77.2 °F 57.2 °F 29.9 in ENE 4 mph 8.5 mph 51 % 0 in
22:19 77.2 °F 57.2 °F 29.9 in ENE 7.6 mph 8.1 mph 51 % 0 in
22:24 77 °F 57.2 °F 29.9 in East 6.9 mph 8.1 mph 51 % 0 in
22:29 76.8 °F 59 °F 29.8 in ENE 6.3 mph 10.3 mph 52 % 0 in
22:34 76.5 °F 57.2 °F 29.8 in ENE 5.6 mph 10.3 mph 52 % 0 in
22:39 76.5 °F 57.2 °F 29.8 in ESE 7.4 mph 10.7 mph 52 % 0 in
22:44 76.5 °F 59 °F 29.9 in ENE 5.8 mph 10.7 mph 53 % 0 in
22:49 76.3 °F 59 °F 29.9 in East 4.9 mph 7.4 mph 53 % 0 in
22:54 76.1 °F 59 °F 29.9 in ESE 4.7 mph 7.6 mph 53 % 0 in
22:59 75.9 °F 57.2 °F 29.8 in East 3.8 mph 8.7 mph 53 % 0 in
23:04 75.7 °F 59 °F 29.8 in East 7.8 mph 8.7 mph 54 % 0 in
23:09 75.6 °F 59 °F 29.8 in East 6.9 mph 8.5 mph 54 % 0 in
23:15 75.4 °F 57.2 °F 29.9 in ENE 2.5 mph 7.8 mph 54 % 0 in
23:20 75.2 °F 57.2 °F 29.9 in NE 6.3 mph 7.4 mph 55 % 0 in
23:25 75 °F 57.2 °F 29.9 in ENE 4.9 mph 6.5 mph 55 % 0 in
23:30 75 °F 57.2 °F 29.9 in ENE 4.9 mph 7.8 mph 55 % 0 in
23:35 74.8 °F 57.2 °F 29.9 in Calm   7.8 mph 55 % 0 in
23:40 74.7 °F 57.2 °F 29.9 in East 5.8 mph 7.6 mph 56 % 0 in
23:45 74.5 °F 57.2 °F 29.9 in East 5.8 mph 5.8 mph 56 % 0 in
23:50 74.3 °F 57.2 °F 29.9 in NE 6.3 mph 7.4 mph 56 % 0 in
23:55 74.3 °F 59 °F 29.9 in NE 6.3 mph 7.4 mph 57 % 0 in
Le Gheer Warneton
Courtoisie de Weather Underground - 2.25 mb

Mise a jour : 16-12-17 12:12:11
Généré par Cumulus 1.9.4 (1099)